010  
ASUS44 KMEG 151510  
RWRMEG  
MEMPHIS CWA HOURLY WEATHER ROUNDUP  
NATIONAL WEATHER SERVICE MEMPHIS TN  
1000 AM CDT WED AUG 15 2018  
   
..WEST TENNESSEE
 
 
 
CITY SKY/WX TMP DP RH WIND PRES REMARKS
 
MEMPHIS INTL FAIR 85 72 65 SW9 30.03S HX 91  
NWS MEMPHIS N/A 85 N/A N/A MISG N/A  
JACKSON FAIR 84 70 62 S9G18 30.04R  
COVINGTON SUNNY 86 72 62 S10G16 30.02S HX 92  
SOMERVILLE SUNNY 84 70 61 S9G16 30.03S  
BOLIVAR SUNNY 84 70 61 S8 30.05R  
LEXINGTON SUNNY 84 72 65 SW9 30.05R  
SELMER SUNNY 82 73 74 SW6 30.05R  
DYERSBURG FAIR 85 72 65 S8 30.02R HX 91  
PARIS SUNNY 82 70 65 SW9 30.04R  
HUNTINGDON SUNNY 86 68 54 SW8G14 30.03R  
 
   
..EASTERN ARKANSAS
 
 
 
CITY SKY/WX TMP DP RH WIND PRES REMARKS
 
JONESBORO FAIR 85 76 74 SW15 29.98S HX 94  
WEST MEMPHIS N/A N/A N/A N/A MISG 30.01R  
BATESVILLE CLOUDY 82 73 74 VRB5 29.99R  
WALNUT RIDGE N/A 83 75 77 SW12 29.97S HX 90  
BLYTHEVILLE FAIR 86 71 60 SW16G24 30.00S HX 91  
NW BLYTHEVILLE MOSUNNY 82 72 69 SW14G24 30.00R  
SEARCY FAIR 84 75 74 SW6 29.99S HX 92  
STUTTGART FAIR 85 73 67 SW14 30.01S HX 91  
PINE BLUFF FAIR 84 70 62 SW13 30.02R  
MONTICELLO FAIR 85 74 69 SW8 30.03R HX 92  
 
   
..NORTH MISSISSIPPI
 
 
 
CITY SKY/WX TMP DP RH WIND PRES REMARKS
 
TUPELO FAIR 85 73 67 SE7 30.06R HX 91  
OXFORD FAIR 82 72 69 VRB5 30.06S  
BATESVILLE FAIR 84 72 65 S8 30.03S  
OLIVE BRANCH PTSUNNY 86 70 58 SW14G20 30.04R HX 90  
TUNICA N/A 82 72 69 S9 30.04R  
CLARKSDALE SUNNY 86 75 70 S8 30.03R HX 95  
CORINTH N/A 86 72 62 S8 30.05S HX 92  
GREENWOOD FAIR 86 72 62 SW10 30.05R HX 92  
COLUMBUS FAIR 87 75 66 SW5 30.05S HX 97  
STARKVILLE FAIR 82 73 74 S3 30.07S  
GOLDEN TRIANGL FAIR 87 74 64 S7 30.07R HX 95  
 
   
..SOUTHEAST MISSOURI
 
 
 
CITY SKY/WX TMP DP RH WIND PRES REMARKS
 
KENNETT FAIR 84 75 74 SW13G20 29.97S HAZE HX 92  
MALDEN FAIR 84 72 65 SW13 29.99S  
WEST PLAINS PTSUNNY 75 72 90 SW6 29.99F  
POPLAR BLUFF FAIR 78 73 84 SW7 29.97S  
CAPE GIRARDEAU CLOUDY 73 70 90 N6 30.00R THUNDER  
 
   
..NORTHWEST ALABAMA
 
 
 
CITY SKY/WX TMP DP RH WIND PRES REMARKS
 
MUSCLE SHOALS FAIR 85 71 63 S6 30.08S HX 90  
 
   
..MIDDLE TENNESSEE
 
 
 
CITY SKY/WX TMP DP RH WIND PRES REMARKS
 
NASHVILLE PTSUNNY 83 67 58 VRB5 30.07S  
CLARKSVILLE FAIR 79 69 71 VRB5 30.05R  
DICKSON SUNNY 84 70 61 SW8 30.07R  
COLUMBIA SUNNY 84 73 70 SW6 30.06R HX 91  
LEWISBURG SUNNY 81 70 69 S6 30.08R  
 
   
..WESTERN KENTUCKY
 
 
 
CITY SKY/WX TMP DP RH WIND PRES REMARKS
 
PADUCAH PTSUNNY 79 70 74 S6 30.00R  
FORT CAMPBELL FAIR 80 69 70 SE8 30.04R  
 
   
..CENTRAL ARKANSAS
 
 
 
CITY SKY/WX TMP DP RH WIND PRES REMARKS
 
LITTLE ROCK PTSUNNY 84 74 71 SW12 29.99S HX 91  
 
SKY/WX REPORTED AS FAIR MEANS FEW OR NO CLOUDS BELOW  
12 THOUSAND FEET.  
 
 
 
CLICK HERE TO GO TO PREVIOUS BULLETINS.

The Nexlab TN Page
The Nexlab MS Page
The Nexlab AR Page Main Text Page